Theta_e
320 320 320 320 320 320 320 321 321 322 323 324 324 324 324 325 323 320 315 319 323 335 333 322 320 318 318 314 315 314 307 303 305 305 308 312 310 313 314 313 314 316 316 318 320
319 319 320 320 320 320 320 321 321 322 323 323 323 324 324 324 320 314 323 339 338 339 321 318 314 317 315 313 315 311 308 307 310 311 309 310 310 311 311 311 312 314 317 319 320
318 319 319 319 320 320 320 321 321 322 323 323 323 324 324 324 316 313 335 338 337 332 319 318 317 315 311 313 312 311 309 309 309 310 311 310 309 311 310 309 312 311 313 316 317
317 318 318 318 319 320 320 320 321 321 322 322 322 324 325 322 305 316 337 337 337 325 319 316 315 311 310 308 311 308 309 310 311 310 310 308 311 308 310 311 314 313 314 315 315
316 316 317 318 318 319 319 319 320 320 321 321 322 324 321 314 312 320 334 333 323 319 316 313 312 311 308 308 309 308 308 309 310 310 309 310 308 308 309 312 313 314 315 315 316
315 316 316 317 318 319 319 319 318 319 320 321 323 323 321 307 319 321 321 320 320 319 316 316 313 314 310 309 308 309 308 308 309 309 310 307 308 308 310 313 312 313 314 315 315
316 315 315 316 317 318 318 318 318 319 321 323 325 324 316 311 321 322 321 319 320 319 315 316 317 313 312 309 311 309 306 309 309 309 308 309 305 306 312 312 311 313 314 315 316
315 315 315 316 317 318 319 318 318 320 323 324 326 324 312 322 324 321 321 319 320 320 318 319 319 314 313 312 310 306 307 303 309 309 308 307 301 308 313 311 311 311 312 313 315
315 315 315 315 316 318 317 317 319 321 324 324 323 321 311 319 318 319 321 316 317 318 318 317 317 312 313 308 306 307 301 302 303 309 306 306 303 308 311 310 309 310 311 312 313
314 314 314 315 316 316 316 317 321 318 321 323 321 316 314 313 317 318 320 318 314 315 314 314 313 310 310 307 299 301 301 303 302 306 307 305 304 308 310 309 309 310 310 310 312
313 314 314 315 316 315 317 321 318 317 318 314 313 312 314 317 319 317 318 316 315 313 308 311 306 305 306 307 306 304 303 302 305 308 306 304 304 306 309 309 308 309 309 310 312
313 313 314 315 315 315 320 319 317 320 312 314 314 313 315 317 311 314 318 311 311 307 309 308 304 308 307 306 305 304 302 303 306 307 305 304 303 307 309 309 308 307 309 310 314
313 313 313 314 314 318 322 317 324 322 314 310 313 313 314 316 310 311 315 312 309 306 307 304 306 308 305 304 303 304 302 302 302 304 305 303 301 304 306 307 308 309 310 312 313
313 313 313 313 314 323 320 322 323 324 309 306 309 311 313 314 309 315 316 311 308 305 305 305 308 305 304 303 305 300 304 303 301 299 295 303 292 301 304 305 306 308 310 311 314
313 314 313 306 325 320 322 323 326 324 299 309 310 317 314 309 311 312 316 312 305 305 306 304 303 304 302 303 305 301 304 302 301 299 299 299 296 300 304 302 304 308 309 310 314
312 314 313 321 325 321 323 322 325 308 297 305 309 307 309 310 310 311 310 314 313 307 308 306 309 305 304 305 305 305 303 303 303 301 293 298 297 297 300 302 304 306 308 311 313
311 313 317 325 321 324 324 318 307 300 308 303 304 307 306 306 307 307 306 306 304 299 301 304 305 306 306 302 306 304 300 294 292 292 291 299 295 298 303 305 306 306 307 310 312
309 309 319 323 326 325 322 312 301 303 303 307 306 306 303 306 306 305 305 304 307 304 300 298 295 303 306 302 300 300 299 293 286 288 291 298 292 297 305 307 307 308 310 310 311
307 327 326 323 325 327 317 305 304 304 306 304 305 302 303 304 304 304 305 302 304 305 298 296 297 305 305 305 303 299 296 302 296 296 291 295 299 303 304 305 307 307 308 309 309
326 324 320 324 327 326 315 301 306 307 307 306 301 304 301 302 301 303 302 305 302 305 307 301 295 302 302 304 305 302 304 295 297 286 286 292 293 294 300 302 304 306 307 308 308
327 320 319 324 325 319 309 307 306 309 308 305 303 302 303 301 302 301 300 303 305 303 305 304 301 299 302 300 299 300 299 299 299 295 288 286 291 303 302 304 304 307 308 309 305
321 314 318 321 313 314 309 308 301 307 308 305 306 305 303 303 301 301 299 302 308 306 300 304 301 295 297 303 304 301 298 298 294 290 293 292 292 304 304 304 305 306 308 309 307
314 314 318 319 307 308 307 305 305 304 305 304 303 304 305 302 299 301 301 305 305 304 302 305 298 292 293 299 302 299 300 300 299 298 292 286 290 303 304 303 304 304 307 306 307
313 308 312 314 312 307 304 303 302 305 304 304 304 304 303 302 304 300 301 303 304 304 306 304 299 295 290 295 299 296 297 298 296 292 292 292 293 298 300 302 303 305 306 306 307
312 307 307 305 306 306 306 303 300 300 303 304 302 302 300 297 299 298 300 301 303 304 304 304 297 299 298 298 298 296 296 296 294 295 290 292 293 296 299 300 303 303 305 304 305
309 307 312 308 304 304 300 303 299 300 300 300 300 302 302 299 299 297 300 301 300 303 303 305 296 298 295 298 297 294 295 296 296 295 294 294 294 300 303 304 303 303 304 304 304
311 315 309 301 304 302 303 300 299 300 303 302 301 300 299 301 304 304 305 305 304 302 301 301 298 296 291 295 295 291 294 294 295 296 295 291 295 300 299 300 299 300 302 302 303
Wind_Speed
9 9 9 9 9 9 9 9 9 9 9 10 12 13 14 12 12 6 13 7 9 15 7 10 9 6 8 6 6 10 9 10 5 3 10 7 6 6 4 1 5 5 9 8 4
11 10 9 9 9 9 9 9 9 9 9 10 12 14 13 11 13 14 4 7 10 15 12 9 4 9 4 4 3 11 9 11 8 8 3 1 7 4 6 6 8 9 9 5 4
12 11 10 9 9 8 9 9 9 10 10 10 11 14 14 13 3 13 5 9 12 15 6 6 4 4 2 3 2 5 7 7 4 5 5 7 7 1 9 8 3 4 3 3 3
12 11 10 9 9 8 8 9 9 10 10 11 11 13 13 13 2 8 5 10 14 16 5 5 7 3 3 2 1 7 3 1 6 3 8 8 3 9 7 4 9 1 3 6 3
12 12 11 10 9 9 9 9 10 10 11 12 13 13 10 4 12 8 9 12 12 7 7 4 4 3 3 2 0 3 3 4 4 7 4 3 9 9 7 5 2 6 7 8 5
13 12 11 11 10 9 9 9 9 10 10 11 13 14 13 9 4 3 3 3 9 7 8 9 7 9 2 2 7 4 3 3 3 2 5 8 8 6 11 7 7 9 11 9 9
12 12 12 11 11 10 9 10 10 10 11 11 11 8 5 9 1 3 1 5 5 9 8 6 6 6 4 5 0 3 11 11 10 2 10 3 14 19 12 4 8 13 12 13 11
12 12 12 11 11 10 10 11 10 10 11 12 11 12 5 4 2 7 2 5 1 4 6 7 7 2 9 1 7 8 7 9 15 6 2 7 13 13 10 8 12 14 13 15 15
12 11 12 11 11 11 11 10 9 9 9 12 10 11 8 6 9 4 5 4 3 4 1 6 8 7 11 13 12 12 7 7 7 8 3 11 15 13 11 11 12 13 15 15 16
13 11 11 11 10 10 10 6 3 4 8 8 7 8 7 5 4 2 0 6 6 8 10 8 7 11 12 7 11 13 13 11 12 3 8 13 16 16 14 15 16 16 16 11 11
15 12 10 10 10 9 7 6 8 8 10 8 8 3 8 5 5 4 2 6 6 8 9 4 10 9 11 7 9 11 13 15 15 9 11 15 16 17 17 16 17 15 8 6 6
15 12 11 10 10 8 8 7 7 8 5 4 2 1 1 1 5 3 5 6 6 11 7 12 13 9 4 10 11 12 16 17 13 10 11 17 22 20 20 16 11 8 9 7 8
14 10 9 9 9 5 1 5 7 3 8 6 6 8 7 9 1 5 8 8 10 11 10 11 15 5 9 11 13 14 15 15 16 15 18 23 23 18 6 3 7 8 7 8 7
13 8 6 7 2 3 4 4 5 3 7 13 12 6 6 1 7 5 5 7 10 12 8 13 6 5 11 14 14 13 8 12 16 16 16 17 20 19 14 11 10 10 12 10 10
15 10 7 4 8 4 7 7 4 4 7 13 11 6 5 7 5 8 1 7 12 14 10 13 6 12 13 10 8 13 12 15 19 19 20 19 14 13 7 12 10 12 10 5 7
17 12 11 6 5 5 6 3 6 9 2 7 6 7 11 7 4 5 3 4 7 11 11 12 5 4 11 7 6 11 14 17 20 17 12 19 8 10 11 12 10 8 8 9 12
18 15 11 8 6 8 6 6 8 9 1 6 3 3 3 3 5 3 8 8 7 8 11 16 14 3 5 13 11 12 14 10 8 9 11 11 7 14 16 12 11 9 14 10 10
17 14 4 3 6 6 6 9 8 7 3 5 3 5 8 5 4 5 9 8 9 9 11 8 10 6 6 9 12 16 12 8 14 14 18 22 21 15 5 6 5 9 10 10 13
16 7 3 6 6 5 9 10 8 6 6 5 8 9 7 6 4 7 9 5 5 8 7 10 8 12 12 14 11 7 8 8 12 16 18 16 20 14 12 5 9 13 9 10 7
6 5 6 8 4 7 9 3 3 3 5 4 9 2 10 7 5 9 7 8 5 0 4 7 15 13 6 8 14 14 10 9 6 7 15 15 24 19 9 14 9 12 15 17 23
7 6 8 8 5 9 7 6 4 5 6 5 7 7 9 7 7 9 4 2 3 7 6 11 9 12 16 18 16 7 13 15 15 12 14 20 12 21 26 24 16 19 11 10 9
5 4 7 6 8 3 5 5 3 3 2 2 6 6 7 7 8 9 7 4 7 9 12 11 7 14 20 22 17 9 12 15 10 17 17 18 23 21 23 23 21 20 21 13 9
5 3 5 8 5 2 3 3 2 3 3 4 3 2 5 8 5 7 6 3 4 9 7 10 5 10 12 4 6 10 11 15 18 18 24 18 19 20 23 22 17 8 12 9 10
6 3 4 4 3 6 2 2 2 4 1 3 5 4 6 8 6 7 11 6 2 7 8 3 12 15 15 19 20 21 22 22 23 11 21 21 26 24 17 16 20 21 15 15 19
4 5 5 4 6 5 5 1 3 0 1 3 4 2 5 5 11 13 7 11 13 1 4 6 14 16 19 22 22 24 26 25 22 20 18 16 22 23 22 17 20 3 16 18 21
7 6 1 3 3 6 4 3 5 3 4 1 5 5 6 10 12 16 15 12 9 6 8 7 14 16 22 22 22 23 25 20 14 15 19 21 21 18 23 22 23 23 23 24 26
5 1 6 5 3 5 5 5 4 3 3 5 7 8 10 8 11 15 15 14 14 15 15 15 14 15 18 20 22 19 9 15 14 13 17 17 23 24 21 19 21 23 24 26 28
Wind_Direction
353 350 344 341 338 334 332 329 326 324 323 320 317 311 310 316 296 212 49 352 314 306 298 250 205 221 215 157 213 229 238 229 132 275 104 141 252 119 264 130 48 55 30 48 85
352 351 348 342 341 338 335 334 329 325 323 323 319 311 312 320 268 69 359 300 300 293 279 240 183 213 171 190 227 254 267 69 35 16 350 351 283 45 253 180 154 130 114 114 76
353 350 347 344 343 342 340 338 333 329 325 324 316 309 303 306 260 63 2 312 288 284 269 290 262 289 197 27 302 337 24 88 133 18 304 313 270 211 270 248 140 33 45 68 76
355 350 346 344 342 342 342 339 336 330 324 318 314 306 312 271 76 67 322 284 281 281 266 224 245 233 323 79 334 139 43 334 112 160 261 254 327 265 270 33 70 286 309 283 311
356 351 345 341 340 340 338 337 332 324 321 318 313 317 295 153 82 117 256 244 266 22 0 3 325 300 335 97 132 351 130 212 176 216 267 281 240 292 237 173 190 239 240 259 284
353 350 344 339 335 333 332 328 321 313 308 306 305 314 241 97 113 120 12 44 12 16 27 9 14 351 37 15 300 60 282 193 232 58 220 266 254 207 262 169 233 257 267 278 284
348 346 342 337 332 327 325 318 311 304 301 299 304 292 349 99 82 114 278 43 19 359 29 30 319 286 286 188 64 215 248 193 213 271 287 287 264 246 244 121 270 279 263 261 266
346 341 340 335 330 323 317 308 296 289 292 290 299 277 98 129 2 222 223 147 35 16 10 354 336 334 324 44 203 260 246 262 141 153 174 249 285 297 149 205 258 263 271 273 271
343 337 335 331 327 321 314 303 282 266 264 284 268 241 133 140 213 91 298 336 330 250 46 297 269 326 215 241 226 185 327 318 297 173 245 263 288 297 281 253 258 260 265 264 265
339 333 326 321 317 313 306 275 234 252 232 246 265 252 163 163 102 312 343 289 300 301 254 243 253 253 223 344 340 335 312 310 297 292 293 294 285 288 284 282 269 262 265 272 267
336 328 321 314 309 314 290 200 201 187 215 316 142 6 105 115 210 193 5 307 263 248 281 349 291 263 15 329 314 301 291 289 291 291 300 283 286 285 281 279 275 273 287 257 241
335 324 315 309 305 312 269 275 30 341 205 205 204 287 86 219 195 144 272 270 293 296 315 259 245 26 333 303 290 287 283 280 290 298 301 295 290 285 271 258 268 301 269 246 203
336 323 308 302 312 260 16 32 317 297 249 166 169 160 157 225 334 74 325 330 285 299 293 300 293 343 289 285 283 275 292 303 312 318 286 269 271 273 289 234 255 266 258 293 253
345 330 311 320 275 153 103 332 292 312 252 144 190 135 183 251 187 352 359 323 293 299 319 286 318 302 285 278 287 291 352 308 295 294 291 320 292 284 270 229 224 237 240 228 223
354 350 328 254 326 244 25 338 355 234 262 142 127 68 156 243 24 134 241 307 285 315 292 279 309 316 301 318 347 298 331 295 286 277 280 275 262 278 197 245 244 256 265 283 236
347 338 334 221 240 28 308 324 244 233 224 133 137 205 212 169 141 330 255 224 271 285 265 268 292 252 308 333 271 301 280 286 274 257 264 278 305 288 289 340 330 304 270 237 230
338 323 311 299 3 343 313 224 231 256 90 133 199 218 296 299 274 287 312 291 327 319 326 324 274 108 274 285 233 304 304 316 290 290 253 280 261 268 277 282 288 319 292 260 240
329 316 206 29 322 324 250 231 260 42 26 64 274 255 256 33 220 282 288 293 143 320 313 326 310 148 92 297 315 300 291 273 287 297 303 309 285 284 178 225 309 260 268 268 270
314 212 232 11 333 288 257 235 14 28 22 318 285 249 214 190 248 297 296 340 0 352 322 316 275 342 295 304 305 280 258 346 309 295 276 279 278 292 342 76 336 327 319 302 12
268 254 69 337 332 262 245 356 64 34 317 271 285 28 306 337 319 321 318 87 336 116 353 303 306 293 296 308 262 241 303 300 266 285 280 292 303 283 21 354 311 329 13 5 359
249 241 53 339 277 244 284 59 108 85 340 312 323 293 297 307 318 309 299 343 95 332 305 285 279 279 302 274 291 265 233 235 255 278 289 298 280 329 326 326 343 323 340 316 309
280 267 22 320 260 315 32 12 339 360 358 312 293 309 309 328 295 296 294 357 40 335 308 313 302 289 299 290 276 293 290 286 277 284 274 281 281 314 308 320 326 327 330 339 322
325 355 45 300 301 78 120 124 1 314 34 326 301 330 346 302 309 285 297 41 293 312 351 354 290 309 308 236 160 241 293 294 290 282 280 284 285 298 304 319 303 278 314 319 308
291 280 111 63 56 322 314 103 177 103 189 294 307 268 278 271 258 267 291 307 248 267 126 299 262 256 272 286 299 297 301 294 279 286 283 283 297 303 322 335 323 335 329 325 323
353 68 359 353 75 355 313 342 298 301 249 252 219 260 335 296 314 277 304 311 301 142 257 233 278 290 293 298 297 286 282 289 295 301 308 306 303 319 338 330 324 346 319 320 313
339 332 231 101 295 287 136 120 314 37 285 190 281 342 289 289 287 294 304 301 297 307 259 274 290 292 290 291 302 305 302 332 330 300 325 323 313 334 323 331 338 339 330 317 313
6 155 277 120 183 272 61 9 10 324 149 298 323 308 291 322 327 299 290 285 279 285 286 285 281 295 304 299 304 295 335 311 330 338 331 315 310 327 327 328 322 315 307 304 307